Regional Weather Roundup
Issued by NWS State College, PA

Home | Current Version | Previous Version | Text Only | Print | Product List | Glossary On
Versions: 1 2 3 4 5 6 7 8 9 10 11 12 13 14 15 16 17 18 19 20 21 22 23 24 25 26 27 28 29 30 31 32 33 34 35 36 37 38 39 40 41 42 43 44 45 46 47 48 49 50
000
ASUS41 KCTP 200110
RWRCTP

REGIONAL WEATHER ROUNDUP
NATIONAL WEATHER SERVICE STATE COLLEGE PA
900 PM EDT SAT APR 19 2014

Note: "fair" indicates few or no clouds below 12,000 feet with no
significant weather and/or obstructions to visibility.

* = STATION THAT DOES NOT REPORT PRECIPITATION /E.G. RAIN...SNOW...ETC/
    THUNDER OR FOG.

PAZ002>004-007>009-013>016-020>023-029>032-200200-
WESTERN PENNSYLVANIA

CITY           SKY/WX    TMP DP  RH WIND       PRES   REMARKS
ERIE           CLEAR     44  26  49 NE10      30.36R
MEADVILLE      NOT AVBL
FRANKLIN*      PTCLDY    52  21  30 N9        30.32R
NEW CASTLE     FAIR      52  30  43 N8        30.32R
BEAVER COUNTY  CLEAR     55  25  30 N6        30.30R
BUTLER*        MOCLDY    54  19  26 CALM      30.31R
PITTSBURGH INT MOCLDY    58  21  24 NE3       30.28R
PITTSBURGH     CLOUDY    60  16  18 CALM      30.27R
INDIANA*       CLOUDY    52  27  37 CALM      30.30R
LATROBE        MOCLDY    55  27  33 CALM      30.29R
WASHINGTON CO* MOCLDY    52  21  30 CALM      30.29S
$$

PAZ004>006-010>012-017>019-024>028-033>037-041-042-045-046-049>053-200200-
CENTRAL PENNSYLVANIA

CITY           SKY/WX    TMP DP  RH WIND       PRES   REMARKS
BRADFORD       MOCLDY    47  22  37 NE5       30.33R
DUBOIS         MOCLDY    52  23  32 NE7       30.30R
CLEARFIELD     MOCLDY    54  22  28 E6        30.31R
JOHNSTOWN      MOCLDY    52  17  25 CALM      30.28R
ALTOONA        MOCLDY    54  23  30 CALM      30.29R
STATE COLLEGE  CLEAR     54  25  32 NE9       30.32R
WILLIAMSPORT   MOCLDY    51  26  37 N6        30.35R
SELINSGROVE    MOCLDY    52  24  33 N9        30.34R
FT INDIANTOWN  NOT AVBL
CAPITAL CITY   PTCLDY    59  22  24 NE6       30.31R
HARRISBURG     MOCLDY    59  25  27 N5        30.30R
YORK           MOCLDY    48  34  58 N3        30.29R
$$

PAZ038>040-043-044-047-048-054-055-060>062-067>071-200200-
EASTERN PENNSYLVANIA

CITY           SKY/WX    TMP DP  RH WIND       PRES   REMARKS
SCRANTON       PTCLDY    50  25  37 VRB6      30.33R
MOUNT POCONO   PTCLDY    46  20  35 CALM      30.31R
ALLENTOWN      PTCLDY    53  27  36 N3        30.30R
QUAKERTOWN*    MOCLDY    55  25  30 NW5       30.30R
READING        PTCLDY    58  23  26 N8        30.30R
LANCASTER      MOCLDY    53  24  32 N9        30.30R
COATESVILLE    NOT AVBL
POTTSTOWN      MOCLDY    57  22  25 N8        30.31R
BLUE BELL      MOCLDY    55  30  38 CALM      30.28R
DOYLESTOWN     MOCLDY    55  23  28 N3        30.29R
WILLOW GROVE   NOT AVBL
NORTH PHILA    CLOUDY    60  24  25 N6        30.30R
PHILADELPHIA   CLOUDY    62  21  20 N7        30.28R
$$



USA.gov is the U.S. government's official web portal to all federal, state and local government web resources and services.